Temperature
21 21 21 21 21 21 21 21 21 21 21 21 21 21 21 21 21 21 21 20 20 20 20 20 20 20 20 19 20 20 19 19 19 19 19 19 20 20 20 19 19 19 18
22 22 21 21 22 21 21 21 21 20 20 21 21 21 21 21 21 20 20 20 20 20 20 20 20 20 20 20 20 20 20 20 19 19 19 19 19 19 20 20 20 19 19
22 22 21 22 22 22 21 21 21 20 20 20 20 20 21 21 21 20 20 20 20 20 20 20 20 20 20 20 20 20 20 20 20 20 20 20 19 19 19 20 20 19 19
23 22 21 21 22 21 21 21 21 20 20 20 20 20 20 20 20 20 20 20 20 20 20 20 20 20 20 20 20 20 20 20 20 20 19 19 19 19 19 19 19 19 19
23 23 21 21 21 21 21 21 21 20 20 20 20 20 20 20 20 20 20 20 20 20 20 20 20 20 20 20 20 20 20 20 20 19 19 19 18 19 19 19 19 19 19
23 23 22 21 21 21 21 21 20 20 20 20 20 20 20 20 20 20 20 20 20 20 20 20 20 19 19 19 20 20 20 20 20 19 18 18 18 18 18 19 19 19 19
23 22 22 21 21 21 21 21 20 20 20 20 20 20 20 20 20 20 20 20 20 20 20 19 20 19 19 19 19 19 19 19 19 19 19 18 18 18 17 18 18 18 19
23 22 22 21 21 21 21 21 20 20 20 20 20 19 19 19 19 20 20 20 19 19 19 19 19 19 19 19 19 19 19 19 19 19 19 18 18 18 17 17 17 18 18
23 23 22 22 21 21 21 21 21 20 20 20 20 20 20 19 18 19 19 19 19 19 19 19 19 19 19 19 19 19 18 18 19 19 19 18 18 18 17 17 17 18 18
22 23 23 22 22 21 21 21 20 20 21 21 20 20 20 20 20 20 20 19 19 19 19 19 19 19 19 19 18 18 18 18 18 18 18 19 18 18 18 17 18 18 18
21 21 21 22 22 21 21 21 20 20 20 20 20 20 20 20 20 20 20 19 19 19 19 19 19 19 19 19 18 18 18 18 18 18 18 19 19 18 18 18 18 18 18
21 20 21 21 22 21 21 20 21 21 20 21 21 21 21 20 20 19 19 19 19 19 18 18 18 18 18 19 18 19 19 19 19 19 19 19 18 18 18 18 18 18 17
21 21 21 21 21 21 21 20 21 21 21 21 21 21 21 20 20 19 19 19 19 18 18 18 19 19 19 19 19 19 19 19 19 19 19 19 19 19 19 19 18 18 18
21 21 21 20 20 21 20 20 20 20 20 20 21 21 20 20 20 19 19 19 19 18 18 18 18 18 18 19 18 19 19 19 19 19 19 19 19 19 19 20 19 19 19
21 21 21 21 21 20 20 21 20 20 20 20 20 20 20 20 20 19 19 19 18 18 18 18 18 18 18 19 19 19 19 19 18 18 19 19 19 19 19 20 20 19 19
22 21 20 20 20 21 21 20 20 20 20 20 20 20 20 20 19 19 19 19 18 18 18 18 18 18 18 18 18 18 18 18 18 18 19 19 19 19 19 19 19 19 19
22 22 21 21 20 20 21 20 20 20 19 19 19 19 19 19 19 20 19 19 19 19 18 18 18 18 18 18 18 18 18 18 19 19 19 19 19 19 19 19 19 19 19
22 22 22 21 20 20 20 19 19 19 19 19 18 18 18 18 19 19 19 19 19 18 18 18 18 18 18 18 18 18 18 19 18 19 19 19 19 19 19 19 19 19 19
21 21 20 20 19 19 19 18 19 19 19 19 19 19 19 19 19 19 19 18 18 18 18 18 18 18 18 18 18 18 18 18 19 18 19 19 19 19 19 19 19 19 19
20 19 20 20 20 20 19 19 19 19 19 19 19 19 19 19 19 19 19 18 18 18 18 18 18 18 18 18 18 18 18 18 18 18 19 19 18 19 19 19 18 18 19
20 20 20 20 19 19 19 19 19 18 18 18 18 19 18 18 18 18 18 18 18 18 18 18 18 18 18 18 18 18 18 18 18 18 18 18 18 18 19 18 18 18 18
20 19 19 19 19 19 19 18 18 18 18 18 18 18 18 17 18 18 18 18 17 17 17 17 17 18 18 18 17 17 17 18 18 19 18 18 18 18 18 18 18 18 18
21 20 20 20 20 19 19 18 18 18 18 17 17 17 18 18 18 17 17 17 17 17 17 17 17 17 17 17 17 16 16 16 18 18 18 18 17 18 18 18 18 18 18
21 21 20 20 20 19 19 18 18 17 16 16 16 16 17 17 17 17 17 16 16 16 16 17 17 16 16 16 16 15 15 16 16 16 17 17 17 17 17 17 17 17 17
21 21 20 20 19 19 18 18 17 16 16 16 16 16 16 17 17 17 16 16 16 16 16 16 16 16 16 15 15 15 15 15 15 15 15 16 16 17 16 16 17 17 17
21 20 20 19 19 19 18 17 16 16 16 15 16 16 16 16 16 16 16 16 15 16 16 16 16 15 15 15 15 15 15 15 15 15 14 14 15 16 16 16 16 16 16
Wind_Speed
13 17 23 23 22 21 19 16 14 14 15 15 16 17 17 17 17 17 16 15 14 13 12 13 13 13 12 12 13 13 12 10 11 12 12 12 12 11 10 9 11 11 11
15 18 23 25 24 22 20 17 15 14 14 14 14 15 15 15 15 14 13 13 12 11 10 10 10 11 11 11 10 10 10 9 7 8 9 9 10 8 5 7 11 11 11
16 16 20 24 24 22 21 19 17 15 14 13 13 13 13 13 13 12 11 11 11 10 9 9 8 8 9 8 8 7 6 6 5 4 5 6 6 6 8 12 12 11 11
15 15 17 23 23 21 21 20 18 17 16 14 13 12 12 12 12 11 10 10 9 9 9 8 8 7 7 6 6 4 2 3 2 2 1 2 4 5 8 11 11 11 10
12 14 17 23 22 21 20 20 19 18 17 16 14 13 12 11 10 10 9 9 8 7 7 7 7 7 7 6 5 4 3 2 2 3 3 5 5 6 9 10 11 11 10
12 14 19 22 21 21 20 20 19 18 18 16 15 13 12 11 10 9 10 10 9 8 8 7 7 7 7 7 7 6 6 6 5 5 5 8 11 12 13 11 12 11 11
11 11 18 20 21 21 20 19 18 18 18 17 15 13 12 12 12 11 10 10 10 10 9 9 9 9 9 9 8 9 9 8 8 7 7 7 9 15 17 14 14 13 13
14 10 14 19 19 20 20 20 20 19 18 17 15 13 12 10 10 13 12 12 11 11 10 10 10 11 11 11 10 9 10 10 10 8 8 8 9 15 19 19 18 17 17
13 11 10 15 18 20 21 21 21 20 20 19 17 15 13 12 11 12 13 13 13 12 12 12 12 12 12 13 12 12 12 13 12 11 10 9 10 14 19 20 20 20 19
13 12 7 9 12 13 16 20 21 20 20 19 18 17 15 13 12 12 13 13 14 15 15 15 15 15 15 15 15 14 15 15 14 13 12 12 14 15 18 21 22 22 21
10 10 9 7 8 9 10 14 17 18 18 18 16 15 14 12 12 12 13 14 16 17 17 17 18 18 18 17 17 18 17 14 14 13 13 15 17 17 18 22 22 22 23
9 9 9 8 6 7 8 9 10 12 12 12 12 13 13 13 13 12 13 16 18 18 19 20 20 20 17 13 15 17 15 16 14 13 15 18 20 19 21 24 23 23 24
12 10 9 8 6 6 4 6 7 9 9 11 12 13 12 10 10 11 10 12 14 16 14 15 16 15 13 11 11 12 13 13 13 14 16 18 20 20 17 24 25 25 25
13 12 12 11 9 7 7 7 7 7 8 9 12 14 11 6 5 6 5 7 9 10 8 8 7 10 12 13 12 12 13 10 12 13 15 19 21 21 19 22 24 25 25
12 12 14 14 12 12 9 8 8 9 9 12 13 15 14 7 8 6 6 8 9 10 9 7 7 7 8 10 12 12 11 10 10 13 14 18 21 21 20 22 24 25 25
12 10 12 16 15 13 11 10 10 9 11 11 11 13 15 12 8 9 9 7 8 10 10 7 7 8 10 9 10 9 10 9 11 13 14 16 19 22 23 25 26 25 25
13 12 13 15 15 14 14 12 7 6 7 6 8 11 14 16 13 9 9 9 8 10 8 6 5 5 6 6 6 7 6 6 9 12 13 14 15 20 25 26 27 27 26
5 5 5 5 8 10 7 5 4 3 4 4 6 7 11 14 15 8 9 7 6 6 5 6 5 4 5 5 5 6 6 6 10 10 11 13 12 14 19 24 25 25 27
3 4 3 2 2 4 5 6 5 4 4 5 6 6 8 10 11 7 8 7 6 5 6 5 5 4 4 5 5 6 6 6 9 9 10 11 11 13 13 17 24 25 26
4 3 1 3 3 3 3 3 2 4 4 5 4 5 7 8 10 6 7 7 6 6 7 5 6 6 5 5 4 6 7 8 9 10 11 9 8 12 13 14 14 15 23
1 0 3 3 1 1 1 1 2 4 4 5 6 6 6 7 8 7 7 7 8 10 11 9 6 6 6 4 2 5 7 10 13 13 11 10 11 10 11 12 11 9 11
2 2 1 1 3 1 2 3 4 4 5 5 6 7 8 8 8 7 8 8 8 7 8 9 6 4 4 6 5 2 4 5 8 11 12 11 9 9 10 8 7 6 6
2 3 5 5 5 5 4 3 3 4 5 4 5 6 7 7 8 9 9 9 10 9 10 10 9 10 8 6 9 6 5 5 3 3 4 4 5 6 8 6 6 5 5
8 8 8 8 8 7 7 4 4 4 4 5 5 6 9 10 10 10 10 11 11 9 9 10 10 9 9 8 7 9 7 4 3 4 4 4 6 4 4 4 4 3 3
9 9 8 8 8 9 8 6 3 3 4 4 6 9 11 11 11 11 10 10 11 10 10 9 9 10 10 10 8 5 5 5 5 4 5 5 4 3 2 5 2 1 1
6 7 7 5 7 7 4 2 2 2 4 5 8 9 10 11 12 13 10 9 10 9 9 9 9 10 10 10 8 7 5 5 5 5 4 4 2 3 3 2 2 2 3
Wind_Direction
162 160 160 155 153 152 149 146 141 130 123 118 115 114 112 109 109 111 115 116 117 118 116 114 113 111 110 110 113 115 117 123 130 131 127 122 117 115 115 115 115 111 109
150 159 160 157 157 155 150 146 142 134 130 126 123 122 121 119 116 115 120 123 124 124 122 117 115 113 111 109 110 115 120 124 131 129 124 121 121 118 122 144 131 126 117
142 156 160 157 158 156 151 146 147 146 144 141 138 136 134 132 130 129 131 133 136 136 133 129 126 122 119 117 114 114 117 118 120 125 123 123 130 127 116 129 137 135 133
139 147 157 157 159 156 151 149 153 157 158 157 155 152 148 146 145 145 146 146 148 148 149 147 144 140 138 136 133 132 130 119 126 163 185 180 181 165 147 141 146 146 146
134 140 153 155 158 156 154 155 158 163 165 167 168 166 163 163 163 163 163 162 162 162 165 165 163 161 165 169 172 181 206 217 227 242 265 269 258 215 187 166 164 163 163
135 140 148 152 158 159 159 161 164 166 169 172 176 177 176 176 175 176 181 180 179 179 185 187 186 188 191 197 202 211 223 239 247 259 268 272 264 218 205 191 184 182 181
135 140 148 150 156 161 163 165 168 170 173 177 181 184 187 190 185 183 193 194 195 197 202 205 201 200 204 206 214 227 229 241 251 256 261 271 249 201 201 201 199 196 197
144 142 146 155 157 159 163 168 173 176 178 181 185 188 194 205 195 188 198 208 214 218 217 218 221 209 211 214 218 224 232 244 255 256 260 270 256 218 204 201 203 207 202
145 147 150 158 165 167 169 171 176 180 182 184 186 188 195 207 213 205 205 216 223 226 225 226 220 219 219 220 222 225 232 241 250 258 263 265 261 238 215 211 209 211 210
151 156 152 161 170 174 177 178 180 185 189 190 189 192 196 200 207 211 214 219 224 228 230 229 229 228 225 224 227 233 240 243 244 245 247 253 256 244 227 218 214 212 212
158 161 160 166 174 175 178 189 188 194 198 197 197 201 203 206 213 216 219 223 226 229 232 233 234 234 231 229 231 231 238 239 241 242 240 242 245 239 228 221 220 222 221
169 171 171 173 172 177 193 204 199 205 203 203 203 205 208 207 214 223 227 231 233 234 234 235 235 238 240 234 236 237 234 232 234 235 235 239 247 248 232 218 222 226 228
175 174 180 183 177 183 205 197 203 215 211 208 208 211 216 218 222 226 224 230 232 235 234 234 238 240 239 232 234 237 237 233 236 235 237 237 246 252 231 206 213 221 227
175 181 181 184 184 194 201 196 204 212 212 211 214 215 217 221 223 227 226 221 222 227 223 217 225 232 235 230 232 243 247 239 226 231 239 241 244 239 217 205 210 215 219
176 186 184 184 190 197 199 200 202 209 211 215 214 218 218 219 224 219 219 214 211 211 215 215 225 234 239 238 234 239 249 248 233 237 240 243 241 229 219 216 211 216 218
180 189 181 189 196 199 202 205 208 209 216 216 216 217 217 223 231 229 226 216 212 211 215 217 218 227 232 232 229 228 238 239 239 243 246 247 238 230 226 223 220 219 221
181 187 186 188 197 202 207 209 206 212 216 217 226 227 223 227 231 230 226 225 219 212 209 212 226 223 233 229 227 230 236 239 249 244 240 245 244 237 233 228 223 223 223
183 190 170 186 197 208 228 254 262 265 264 247 246 243 244 237 231 232 230 229 235 219 196 202 206 218 228 227 231 238 248 253 257 249 245 247 243 244 242 234 229 226 226
93 96 110 68 314 251 241 255 267 264 274 282 283 260 256 260 249 241 239 232 230 229 220 211 205 202 221 230 240 256 254 253 255 249 248 250 249 243 239 239 235 229 228
129 118 216 193 209 177 188 242 274 298 291 282 278 279 279 270 263 247 241 226 216 231 234 216 210 202 208 212 225 254 257 257 259 253 250 253 259 253 242 243 243 235 233
40 210 235 255 258 175 268 298 284 269 266 273 279 275 287 283 269 254 252 235 219 224 232 221 209 207 212 181 207 266 257 245 248 254 256 255 254 252 242 236 232 229 237
90 28 76 233 275 234 209 231 240 249 260 263 272 282 285 282 274 250 247 246 233 226 229 221 205 195 213 177 183 228 290 279 246 245 247 249 258 256 240 230 209 204 205
210 209 193 218 223 206 205 229 290 309 309 309 302 296 291 277 273 267 249 240 238 225 228 224 207 213 231 208 194 197 219 238 278 270 256 262 287 262 238 224 196 178 207
197 197 205 214 218 218 213 213 240 257 275 279 283 287 291 290 285 277 267 252 240 225 224 225 211 218 223 231 212 216 225 213 209 284 299 305 321 331 331 287 217 189 210
202 204 210 220 224 225 221 218 240 281 291 308 322 322 312 302 288 276 263 261 246 228 224 220 216 214 213 220 216 203 215 212 204 210 266 289 309 312 283 254 302 309 160
229 223 227 231 239 238 224 178 108 58 12 354 338 326 317 309 299 287 270 260 246 223 212 219 215 212 215 215 208 196 183 182 184 187 227 262 301 320 290 333 352 15 62
Height
1526 1529 1531 1533 1534 1536 1538 1539 1541 1543 1545 1546 1547 1547 1547 1548 1549 1550 1551 1552 1553 1553 1553 1554 1554 1555 1555 1555 1555 1556 1557 1557 1557 1557 1557 1557 1557 1558 1558 1558 1557 1558 1558
1524 1528 1530 1532 1533 1535 1537 1539 1542 1544 1546 1547 1547 1548 1548 1549 1550 1550 1551 1552 1553 1554 1554 1554 1555 1556 1556 1557 1557 1557 1557 1558 1558 1559 1560 1560 1560 1560 1560 1560 1559 1560 1560
1526 1528 1530 1532 1533 1535 1537 1539 1542 1544 1546 1547 1547 1548 1549 1550 1550 1550 1551 1551 1552 1553 1554 1555 1555 1556 1557 1558 1559 1559 1559 1559 1560 1561 1561 1561 1562 1562 1562 1561 1561 1561 1562
1526 1528 1531 1533 1534 1536 1538 1539 1541 1543 1544 1546 1547 1548 1549 1550 1550 1550 1551 1551 1552 1553 1553 1554 1555 1556 1557 1558 1558 1559 1559 1559 1560 1561 1561 1562 1562 1562 1563 1563 1562 1563 1563
1525 1528 1531 1534 1535 1537 1538 1539 1541 1542 1543 1545 1547 1548 1549 1549 1550 1550 1551 1552 1552 1553 1554 1554 1555 1556 1557 1557 1558 1558 1559 1559 1560 1560 1561 1561 1561 1562 1563 1563 1563 1564 1564
1524 1527 1529 1533 1535 1537 1538 1539 1541 1542 1543 1545 1547 1548 1549 1549 1549 1549 1550 1551 1552 1553 1554 1554 1555 1556 1556 1557 1557 1557 1558 1559 1559 1559 1559 1560 1560 1561 1562 1563 1563 1563 1564
1525 1526 1529 1531 1534 1536 1537 1539 1541 1542 1543 1544 1546 1548 1548 1549 1549 1549 1550 1551 1551 1552 1553 1554 1554 1554 1555 1555 1556 1557 1557 1557 1557 1557 1557 1557 1558 1559 1560 1561 1561 1562 1562
1525 1527 1529 1532 1534 1535 1536 1538 1539 1541 1542 1543 1545 1546 1547 1548 1548 1548 1549 1550 1550 1551 1552 1552 1553 1554 1554 1554 1554 1555 1555 1556 1556 1556 1556 1556 1556 1557 1558 1558 1559 1559 1560
1524 1526 1528 1530 1533 1535 1536 1536 1538 1539 1540 1541 1543 1544 1545 1546 1547 1547 1548 1549 1550 1550 1551 1551 1552 1553 1553 1553 1553 1553 1553 1553 1553 1553 1553 1554 1554 1554 1555 1556 1556 1557 1557
1524 1525 1528 1530 1531 1533 1534 1535 1536 1537 1539 1540 1541 1542 1543 1544 1545 1546 1546 1547 1548 1549 1549 1550 1550 1551 1551 1551 1551 1550 1549 1549 1549 1549 1549 1550 1550 1551 1552 1552 1553 1554 1555
1523 1524 1525 1528 1529 1530 1532 1534 1535 1536 1537 1538 1539 1541 1542 1543 1544 1544 1545 1546 1546 1546 1547 1547 1548 1548 1548 1547 1547 1546 1546 1545 1546 1545 1545 1545 1546 1547 1548 1549 1550 1551 1552
1523 1524 1524 1526 1527 1528 1530 1532 1533 1535 1535 1536 1537 1538 1540 1541 1542 1542 1543 1543 1543 1544 1544 1545 1545 1545 1544 1544 1545 1544 1543 1543 1543 1542 1543 1543 1543 1544 1545 1545 1546 1547 1547
1524 1525 1526 1528 1529 1529 1530 1532 1533 1534 1535 1535 1536 1537 1538 1539 1540 1539 1539 1540 1540 1541 1541 1542 1542 1542 1541 1541 1542 1542 1541 1540 1540 1540 1540 1541 1541 1541 1540 1540 1541 1541 1542
1524 1526 1528 1529 1529 1530 1531 1532 1533 1534 1534 1535 1535 1535 1536 1536 1537 1537 1537 1537 1538 1538 1539 1539 1540 1540 1539 1539 1539 1539 1539 1539 1538 1538 1538 1538 1537 1537 1537 1536 1536 1537 1538
1523 1525 1526 1528 1528 1528 1530 1531 1531 1532 1533 1533 1534 1534 1534 1534 1534 1534 1534 1534 1534 1534 1535 1535 1536 1536 1536 1536 1536 1536 1537 1537 1536 1535 1534 1534 1534 1533 1533 1533 1532 1533 1533
1522 1524 1524 1523 1524 1526 1527 1528 1528 1529 1530 1531 1531 1531 1532 1531 1531 1531 1530 1529 1529 1529 1530 1530 1531 1532 1532 1532 1532 1532 1532 1532 1532 1532 1530 1530 1530 1529 1528 1528 1528 1528 1529
1521 1523 1523 1522 1522 1523 1523 1524 1525 1527 1528 1528 1528 1528 1528 1527 1526 1525 1525 1524 1524 1524 1524 1525 1525 1526 1526 1527 1526 1526 1526 1526 1526 1526 1526 1526 1526 1525 1524 1523 1523 1523 1524
1520 1520 1520 1521 1521 1522 1522 1522 1524 1526 1526 1526 1525 1526 1525 1523 1521 1520 1521 1520 1521 1520 1519 1520 1519 1519 1520 1520 1521 1521 1521 1521 1520 1520 1520 1520 1519 1519 1518 1517 1517 1517 1517
1519 1519 1519 1520 1521 1522 1521 1522 1522 1521 1521 1521 1521 1521 1520 1518 1516 1514 1513 1514 1515 1515 1514 1514 1514 1513 1513 1514 1515 1515 1515 1515 1515 1514 1512 1512 1512 1511 1511 1511 1510 1509 1509
1516 1518 1518 1518 1518 1518 1518 1518 1517 1516 1516 1516 1514 1513 1514 1513 1511 1509 1508 1508 1510 1510 1508 1508 1507 1506 1507 1507 1508 1507 1507 1507 1507 1507 1505 1503 1503 1504 1504 1504 1504 1503 1503
1515 1515 1516 1516 1515 1515 1515 1514 1513 1512 1511 1510 1509 1507 1506 1506 1505 1504 1502 1502 1502 1501 1500 1502 1501 1500 1500 1501 1502 1500 1499 1499 1498 1498 1498 1496 1493 1494 1496 1497 1497 1496 1496
1512 1513 1513 1513 1512 1512 1512 1511 1510 1508 1507 1506 1504 1502 1500 1499 1497 1496 1495 1494 1494 1492 1492 1492 1492 1492 1492 1494 1496 1496 1493 1492 1489 1490 1489 1487 1484 1484 1486 1488 1489 1490 1491
1511 1510 1511 1510 1510 1510 1509 1508 1506 1504 1502 1500 1498 1495 1493 1492 1490 1488 1486 1485 1484 1484 1483 1484 1484 1483 1484 1484 1487 1489 1488 1484 1484 1484 1484 1481 1479 1478 1478 1480 1483 1484 1486
1508 1507 1507 1506 1505 1505 1504 1503 1501 1500 1497 1495 1492 1489 1487 1485 1483 1480 1478 1476 1475 1475 1475 1475 1475 1475 1475 1475 1476 1477 1479 1481 1482 1481 1480 1479 1476 1475 1475 1479 1478 1478 1480
1504 1504 1503 1502 1501 1500 1499 1498 1497 1495 1493 1490 1487 1484 1480 1477 1474 1471 1469 1468 1467 1466 1467 1468 1468 1468 1467 1468 1468 1470 1473 1475 1475 1476 1473 1473 1473 1472 1471 1474 1474 1474 1474
1501 1501 1501 1499 1498 1496 1495 1494 1493 1491 1489 1486 1482 1478 1473 1468 1463 1459 1459 1459 1459 1459 1459 1460 1461 1461 1461 1461 1462 1464 1467 1469 1469 1470 1469 1468 1467 1469 1471 1471 1470 1472 1471